(71) Niobe
ephemeris date magn radius delta ra dec elong phase
Opposition13 Jun 202510.62.341 AU1.419 AU17h21m-55°32'147.7°13.4°
Today19 Jul 202511.02.386 AU1.560 AU16h50m-47°53'134.6°17.7°
(71) Niobe - 2025-07-19
astro.vanbuitenen.nl


 
-1 year
-1 month
-1 day
Now
+1 day
+1 month
+1 year

The interactive orbit chart above shows the body's path through the solar system and its position at the given date. Green and blue lines are shown perpendicular to the ecliptic plane: Green if the path is above the ecliptic plane, blue if it is below. (Left-click and drag to rotate the view; Right-click and drag to move the view; Use scroll wheel to zoom in our out.)

The orbital elements of Niobe are:

            e (Eccentricity)                : 0.1769568
            a (Semimajor axis)              : 2.7546232
            i (Inclination)                 : 23.24272
            Ω (Longitude of ascending node) : 315.90887
            ω (Argument of perihelion)      : 267.05076
            M (Mean anomaly)                : 18.04959
            Epoch                           : 2025 May 05

            L (Longitude of perihelion)     : 42.69965
            B (Latitude of perihelion)      : -23.21013
            P (Orbital period in years)     : 4.57            
        

The light curve chart below shows the estimated development of the minor planet's magnitude.


The all-sky chart below shows the path of the minor planet over the same period as the light curve. The current position is marked yellow.





The following chart shows the path of the minor planet in the next few days. The field of view is optimized for (~10x50) binoculars and finderscopes. A more printer-friendly version of the same chart can be found below.




Ephemerides:
Date       Time       RA (2000)    DEC (2000)    delta   radius  elong  phase   PA    magn
2025-07-19 00:00 UT   16 50 07.3   -47 53 54     1.560    2.386  134.6   17.7    70   11.0 
2025-07-19 02:16 UT   16 50 06.4   -47 52 27     1.561    2.386  134.5   17.7    70   11.0 
2025-07-20 00:00 UT   16 49 58.9   -47 38 36     1.568    2.387  133.9   17.9    71   11.0 
2025-07-21 00:00 UT   16 49 53.0   -47 23 18     1.576    2.389  133.2   18.1    72   11.1 
2025-07-22 00:00 UT   16 49 49.6   -47 08 02     1.584    2.390  132.4   18.3    73   11.1 
2025-07-23 00:00 UT   16 49 48.6   -46 52 48     1.592    2.391  131.7   18.5    74   11.1 
2025-07-24 00:00 UT   16 49 50.0   -46 37 36     1.600    2.393  131.0   18.7    75   11.1 
2025-07-25 00:00 UT   16 49 53.8   -46 22 27     1.609    2.394  130.3   18.9    76   11.1 
2025-07-26 00:00 UT   16 49 59.9   -46 07 22     1.618    2.396  129.5   19.1    76   11.2 
2025-07-27 00:00 UT   16 50 08.3   -45 52 20     1.627    2.397  128.8   19.3    77   11.2 
2025-07-28 00:00 UT   16 50 19.0   -45 37 22     1.636    2.399  128.0   19.5    78   11.2 
2025-07-29 00:00 UT   16 50 31.9   -45 22 28     1.645    2.400  127.3   19.7    79   11.2 
2025-07-30 00:00 UT   16 50 47.1   -45 07 40     1.654    2.402  126.5   19.9    79   11.2 
2025-07-31 00:00 UT   16 51 04.4   -44 52 57     1.664    2.403  125.8   20.0    80   11.3 
2025-08-01 00:00 UT   16 51 23.8   -44 38 19     1.673    2.404  125.0   20.2    81   11.3 
2025-08-02 00:00 UT   16 51 45.3   -44 23 47     1.683    2.406  124.3   20.4    81   11.3 
2025-08-03 00:00 UT   16 52 08.8   -44 09 21     1.693    2.407  123.5   20.6    82   11.3 
2025-08-04 00:00 UT   16 52 34.4   -43 55 01     1.703    2.409  122.8   20.7    83   11.3 
2025-08-05 00:00 UT   16 53 01.9   -43 40 48     1.714    2.410  122.0   20.9    83   11.3 
2025-08-06 00:00 UT   16 53 31.3   -43 26 41     1.724    2.412  121.3   21.1    84   11.4 
2025-08-07 00:00 UT   16 54 02.6   -43 12 41     1.735    2.413  120.5   21.2    84   11.4 
2025-08-08 00:00 UT   16 54 35.7   -42 58 48     1.745    2.415  119.8   21.4    85   11.4 
2025-08-09 00:00 UT   16 55 10.6   -42 45 02     1.756    2.416  119.0   21.5    85   11.4 
2025-08-10 00:00 UT   16 55 47.3   -42 31 23     1.767    2.418  118.3   21.7    86   11.4 
2025-08-11 00:00 UT   16 56 25.7   -42 17 52     1.778    2.419  117.5   21.8    86   11.5 
2025-08-12 00:00 UT   16 57 05.8   -42 04 27     1.789    2.421  116.8   21.9    86   11.5 
2025-08-13 00:00 UT   16 57 47.5   -41 51 10     1.800    2.422  116.0   22.1    87   11.5 
2025-08-14 00:00 UT   16 58 30.8   -41 38 01     1.812    2.424  115.3   22.2    87   11.5 
2025-08-15 00:00 UT   16 59 15.8   -41 24 59     1.823    2.425  114.5   22.3    87   11.5 
2025-08-16 00:00 UT   17 00 02.2   -41 12 05     1.835    2.427  113.8   22.5    88   11.6 
2025-08-17 00:00 UT   17 00 50.2   -40 59 18     1.847    2.428  113.0   22.6    88   11.6 
2025-08-18 00:00 UT   17 01 39.7   -40 46 38     1.859    2.430  112.3   22.7    88   11.6 


    Terminology:
            
    delta:  distance between minor planet and earth in AU
    radius: distance between minor planet and sun in AU
    magn:   magnitude (brightness) estimate    
    ra:     right ascension in hours (24h = 360deg)
    dec:    declination in degrees
    elong:  elongation in degrees (angle sun-earth-minor planet)    
    phase:  phase angle in degrees (angle sun-minor planet-earth)        
    AU:     Astronomical Unit (mean distance between earth and sun: 149597870.7 km
    

Orbital elements provided by the MPC (Minor Planet Center).
Calculations by a modified version of AAPlus, a C# implementation of the AA+ project by PJ Naughter from the algorithms presented in the book "Astronomical Algorithms" by Jean Meeus.
NGC2000 dso catalog and star labels from VizieR as provided by the Strasbourg astronomical Data Center.
Tycho2 catalog from the ESO archive.